Location: Santa Cristina
(46.5667°N, 11.7167°E)
Time: 04:04:04
(UTC+00:00)

Meteor 1-28 Rocket - Pass Details

Date: 21 April 2021
Orbit: 502 x 522 km, 97.4° (Epoch: 10 May)

Event Time Altitude Azimuth Distance (km) Brightness Sun altitude
Exits shadow 01:23:53 43° 91° (E) 727 4.1 -24.5°
Maximum altitude 01:24:15 44° 72° (ENE) 709 4.1 -24.5°
Drops below altitude 10° 01:27:49 10° 360° (N) 1,729 6.5 -24.1°
Sets 01:29:57 0° 354° (N) 2,617 7.5 -23.9°
